Time,TemperatureF,DewpointF,PressureIn,WindDirection,WindDirectionDegrees,WindSpeedMPH,WindSpeedGustMPH,Humidity,HourlyPrecipIn,Conditions,Clouds,dailyrainin,SoftwareType,DateUTC
2013-09-18 00:01:00,78.9,75.0,29.96,SE,131,1.0,5.0,88,0.00,,,0.00,weatherlink.com 1.10,2013-09-18 04:01:00,
2013-09-18 00:17:00,79.2,75.0,29.97,East,101,4.0,8.0,87,0.00,,,0.00,weatherlink.com 1.10,2013-09-18 04:17:00,
2013-09-18 00:32:00,76.8,74.0,29.98,NNE,12,2.0,9.0,91,0.08,,,0.08,weatherlink.com 1.10,2013-09-18 04:32:00,
2013-09-18 00:47:00,75.0,73.0,29.97,SE,143,0.0,4.0,93,0.12,,,0.12,weatherlink.com 1.10,2013-09-18 04:47:00,
2013-09-18 01:02:00,74.4,73.0,29.97,ESE,110,0.0,0.0,94,0.12,,,0.12,weatherlink.com 1.10,2013-09-18 05:02:00,
2013-09-18 01:17:00,74.1,73.0,29.97,ESE,110,0.0,0.0,95,0.12,,,0.12,weatherlink.com 1.10,2013-09-18 05:17:00,
2013-09-18 01:32:00,74.0,73.0,29.96,ESE,110,0.0,0.0,96,0.04,,,0.13,weatherlink.com 1.10,2013-09-18 05:32:00,
2013-09-18 01:47:00,73.9,73.0,29.96,ESE,110,0.0,0.0,96,0.01,,,0.13,weatherlink.com 1.10,2013-09-18 05:47:00,
2013-09-18 02:02:00,74.4,74.0,29.96,SSE,160,0.0,3.0,97,0.01,,,0.13,weatherlink.com 1.10,2013-09-18 06:02:00,
2013-09-18 02:17:00,74.6,74.0,29.96,SSE,160,0.0,0.0,97,0.01,,,0.13,weatherlink.com 1.10,2013-09-18 06:17:00,
2013-09-18 02:32:00,74.4,74.0,29.95,SSE,160,0.0,0.0,97,0.00,,,0.13,weatherlink.com 1.10,2013-09-18 06:32:00,
2013-09-18 02:47:00,74.1,73.0,29.95,SSE,160,0.0,0.0,97,0.00,,,0.13,weatherlink.com 1.10,2013-09-18 06:47:00,
2013-09-18 03:02:00,73.8,73.0,29.95,SW,231,0.0,0.0,97,0.00,,,0.13,weatherlink.com 1.10,2013-09-18 07:02:00,
2013-09-18 03:17:00,73.7,73.0,29.95,ESE,117,0.0,1.0,97,0.00,,,0.13,weatherlink.com 1.10,2013-09-18 07:17:00,
2013-09-18 03:32:00,73.7,73.0,29.95,ESE,117,0.0,0.0,97,0.00,,,0.13,weatherlink.com 1.10,2013-09-18 07:32:00,
2013-09-18 03:47:00,73.8,73.0,29.94,ESE,117,0.0,0.0,98,0.00,,,0.13,weatherlink.com 1.10,2013-09-18 07:47:00,
2013-09-18 04:02:00,74.0,73.0,29.95,ESE,117,0.0,0.0,98,0.00,,,0.13,weatherlink.com 1.10,2013-09-18 08:02:00,
2013-09-18 04:17:00,74.6,74.0,29.94,South,172,0.0,3.0,98,0.00,,,0.13,weatherlink.com 1.10,2013-09-18 08:17:00,
2013-09-18 04:32:00,74.8,74.0,29.94,East,79,0.0,0.0,97,0.00,,,0.13,weatherlink.com 1.10,2013-09-18 08:32:00,
2013-09-18 04:47:00,74.4,74.0,29.94,East,79,0.0,0.0,97,0.00,,,0.13,weatherlink.com 1.10,2013-09-18 08:47:00,
2013-09-18 05:02:00,74.2,73.0,29.93,East,79,0.0,0.0,97,0.00,,,0.13,weatherlink.com 1.10,2013-09-18 09:02:00,
2013-09-18 05:17:00,74.2,73.0,29.93,East,79,0.0,0.0,97,0.00,,,0.13,weatherlink.com 1.10,2013-09-18 09:17:00,
2013-09-18 05:32:00,74.0,73.0,29.93,East,79,0.0,0.0,97,0.00,,,0.13,weatherlink.com 1.10,2013-09-18 09:32:00,
2013-09-18 05:47:00,73.7,73.0,29.93,East,79,0.0,0.0,97,0.00,,,0.13,weatherlink.com 1.10,2013-09-18 09:47:00,
2013-09-18 06:02:00,73.6,73.0,29.94,East,79,0.0,0.0,97,0.00,,,0.13,weatherlink.com 1.10,2013-09-18 10:02:00,
2013-09-18 06:17:00,73.6,73.0,29.95,East,79,0.0,0.0,98,0.00,,,0.13,weatherlink.com 1.10,2013-09-18 10:17:00,
2013-09-18 06:32:00,73.5,73.0,29.95,East,79,0.0,0.0,98,0.00,,,0.13,weatherlink.com 1.10,2013-09-18 10:32:00,
2013-09-18 06:47:00,74.1,74.0,29.95,SE,126,0.0,1.0,98,0.00,,,0.13,weatherlink.com 1.10,2013-09-18 10:47:00,
2013-09-18 07:02:00,74.8,74.0,29.96,SE,134,0.0,3.0,98,0.00,,,0.13,weatherlink.com 1.10,2013-09-18 11:02:00,
2013-09-18 07:17:00,75.6,74.0,29.97,ESE,117,0.0,2.0,96,0.00,,,0.13,weatherlink.com 1.10,2013-09-18 11:17:00,
2013-09-18 07:32:00,76.6,75.0,29.97,ESE,113,0.0,2.0,95,0.00,,,0.13,weatherlink.com 1.10,2013-09-18 11:32:00,
2013-09-18 07:47:00,76.9,75.0,29.97,ESE,113,0.0,0.0,94,0.00,,,0.13,weatherlink.com 1.10,2013-09-18 11:47:00,
2013-09-18 08:02:00,76.9,75.0,29.97,ESE,117,0.0,0.0,93,0.00,,,0.13,weatherlink.com 1.10,2013-09-18 12:02:00,
2013-09-18 08:17:00,77.0,75.0,29.97,ESE,117,0.0,0.0,94,0.00,,,0.13,weatherlink.com 1.10,2013-09-18 12:17:00,
2013-09-18 08:32:00,77.0,76.0,29.98,ESE,117,0.0,0.0,95,0.01,,,0.14,weatherlink.com 1.10,2013-09-18 12:32:00,
2013-09-18 08:47:00,77.7,77.0,29.98,North,357,0.0,1.0,96,0.04,,,0.17,weatherlink.com 1.10,2013-09-18 12:47:00,
2013-09-18 09:02:00,80.0,78.0,29.98,WNW,295,0.0,3.0,94,0.04,,,0.17,weatherlink.com 1.10,2013-09-18 13:02:00,
2013-09-18 09:17:00,82.7,80.0,29.98,SE,131,0.0,1.0,90,0.04,,,0.17,weatherlink.com 1.10,2013-09-18 13:17:00,
2013-09-18 09:32:00,82.5,78.0,29.98,SSE,148,3.0,9.0,86,0.03,,,0.17,weatherlink.com 1.10,2013-09-18 13:32:00,
2013-09-18 09:47:00,83.1,79.0,29.99,SW,235,0.0,2.0,86,0.00,,,0.17,weatherlink.com 1.10,2013-09-18 13:47:00,
2013-09-18 10:03:00,84.5,79.0,29.99,SE,124,0.0,3.0,84,0.00,,,0.17,weatherlink.com 1.10,2013-09-18 14:03:00,
2013-09-18 10:18:00,84.1,78.0,29.99,SE,128,0.0,8.0,81,0.00,,,0.17,weatherlink.com 1.10,2013-09-18 14:18:00,
2013-09-18 10:33:00,83.6,77.0,29.99,ESE,104,4.0,9.0,81,0.00,,,0.17,weatherlink.com 1.10,2013-09-18 14:33:00,
2013-09-18 10:48:00,82.8,77.0,30.00,ESE,117,3.0,8.0,83,0.00,,,0.17,weatherlink.com 1.10,2013-09-18 14:48:00,
2013-09-18 11:03:00,84.6,79.0,30.00,East,96,0.0,8.0,83,0.00,,,0.17,weatherlink.com 1.10,2013-09-18 15:03:00,
2013-09-18 11:18:00,85.8,77.0,30.00,SSE,155,5.0,13.0,76,0.00,,,0.17,weatherlink.com 1.10,2013-09-18 15:18:00,
2013-09-18 11:33:00,84.3,78.0,30.01,SE,136,1.0,6.0,81,0.00,,,0.17,weatherlink.com 1.10,2013-09-18 15:33:00,
2013-09-18 11:48:00,83.5,78.0,30.00,ENE,70,4.0,9.0,83,0.00,,,0.17,weatherlink.com 1.10,2013-09-18 15:48:00,
2013-09-18 12:03:00,84.1,77.0,30.00,West,270,2.0,9.0,80,0.00,,,0.17,weatherlink.com 1.10,2013-09-18 16:03:00,
2013-09-18 12:18:00,81.4,75.0,30.00,South,179,5.0,11.0,80,0.00,,,0.17,weatherlink.com 1.10,2013-09-18 16:18:00,
2013-09-18 12:33:00,84.2,78.0,30.00,SE,131,2.0,9.0,82,0.00,,,0.17,weatherlink.com 1.10,2013-09-18 16:33:00,
2013-09-18 12:48:00,85.0,77.0,29.99,SSE,150,6.0,11.0,76,0.00,,,0.17,weatherlink.com 1.10,2013-09-18 16:48:00,
2013-09-18 13:03:00,87.5,77.0,29.98,SSE,149,1.0,6.0,72,0.00,,,0.17,weatherlink.com 1.10,2013-09-18 17:03:00,
2013-09-18 13:18:00,85.8,76.0,29.98,SE,133,6.0,15.0,73,0.00,,,0.17,weatherlink.com 1.10,2013-09-18 17:18:00,
2013-09-18 13:33:00,84.8,76.0,29.99,East,83,2.0,9.0,75,0.00,,,0.17,weatherlink.com 1.10,2013-09-18 17:33:00,
2013-09-18 13:48:00,84.8,77.0,29.99,SSE,159,4.0,7.0,78,0.00,,,0.17,weatherlink.com 1.10,2013-09-18 17:48:00,
2013-09-18 14:03:00,80.2,76.0,30.00,East,89,4.0,9.0,87,0.01,,,0.18,weatherlink.com 1.10,2013-09-18 18:03:00,
2013-09-18 14:18:00,77.5,74.0,30.00,South,184,6.0,12.0,88,0.02,,,0.19,weatherlink.com 1.10,2013-09-18 18:18:00,
2013-09-18 14:33:00,75.0,73.0,29.99,ESE,113,3.0,11.0,92,0.12,,,0.29,weatherlink.com 1.10,2013-09-18 18:33:00,
2013-09-18 14:48:00,74.7,73.0,29.98,SE,129,1.0,4.0,93,0.21,,,0.38,weatherlink.com 1.10,2013-09-18 18:48:00,
2013-09-18 15:03:00,75.8,74.0,29.98,SE,125,0.0,1.0,94,0.23,,,0.41,weatherlink.com 1.10,2013-09-18 19:03:00,
2013-09-18 15:18:00,77.0,76.0,29.96,ESE,108,0.0,0.0,95,0.23,,,0.42,weatherlink.com 1.10,2013-09-18 19:18:00,
2013-09-18 15:33:00,77.9,76.0,29.96,SSE,153,0.0,1.0,95,0.13,,,0.42,weatherlink.com 1.10,2013-09-18 19:33:00,
2013-09-18 15:48:00,79.2,77.0,29.96,ESE,107,0.0,3.0,93,0.03,,,0.42,weatherlink.com 1.10,2013-09-18 19:48:00,
2013-09-18 16:03:00,79.6,77.0,29.96,ESE,103,4.0,6.0,90,0.01,,,0.42,weatherlink.com 1.10,2013-09-18 20:03:00,
2013-09-18 16:18:00,79.9,77.0,29.95,ENE,77,1.0,2.0,89,0.00,,,0.42,weatherlink.com 1.10,2013-09-18 20:18:00,
2013-09-18 16:33:00,80.4,77.0,29.96,NE,43,0.0,5.0,89,0.00,,,0.42,weatherlink.com 1.10,2013-09-18 20:33:00,
2013-09-18 16:48:00,79.1,75.0,29.96,NW,311,0.0,10.0,86,0.00,,,0.42,weatherlink.com 1.10,2013-09-18 20:48:00,
2013-09-18 17:03:00,78.1,75.0,29.96,WNW,301,0.0,4.0,89,0.00,,,0.42,weatherlink.com 1.10,2013-09-18 21:03:00,
2013-09-18 17:18:00,78.1,75.0,29.96,NE,46,0.0,2.0,90,0.00,,,0.42,weatherlink.com 1.10,2013-09-18 21:18:00,
2013-09-18 17:33:00,78.4,75.0,29.96,ESE,114,0.0,3.0,90,0.00,,,0.42,weatherlink.com 1.10,2013-09-18 21:33:00,
2013-09-18 17:48:00,79.1,75.0,29.95,SE,140,0.0,2.0,88,0.00,,,0.42,weatherlink.com 1.10,2013-09-18 21:48:00,
2013-09-18 18:03:00,81.3,76.0,29.96,NE,41,1.0,4.0,83,0.00,,,0.42,weatherlink.com 1.10,2013-09-18 22:03:00,
2013-09-18 18:18:00,81.6,76.0,29.96,NW,319,0.0,2.0,82,0.00,,,0.42,weatherlink.com 1.10,2013-09-18 22:18:00,
2013-09-18 18:33:00,82.3,76.0,29.96,SE,136,5.0,5.0,82,0.00,,,0.42,weatherlink.com 1.10,2013-09-18 22:33:00,
2013-09-18 18:48:00,81.6,76.0,29.97,WNW,299,0.0,3.0,84,0.00,,,0.42,weatherlink.com 1.10,2013-09-18 22:48:00,
2013-09-18 19:03:00,79.8,75.0,29.97,SSW,194,0.0,9.0,84,0.02,,,0.44,weatherlink.com 1.10,2013-09-18 23:03:00,
2013-09-18 19:18:00,77.5,75.0,29.97,NW,324,2.0,2.0,91,0.03,,,0.45,weatherlink.com 1.10,2013-09-18 23:18:00,
2013-09-18 19:33:00,77.1,75.0,29.97,NW,307,0.0,2.0,93,0.03,,,0.45,weatherlink.com 1.10,2013-09-18 23:33:00,
2013-09-18 19:48:00,76.8,75.0,29.98,NNW,345,0.0,1.0,94,0.03,,,0.45,weatherlink.com 1.10,2013-09-18 23:48:00,
2013-09-18 20:03:00,77.0,75.0,29.98,NNE,18,0.0,1.0,93,0.01,,,0.45,weatherlink.com 1.10,2013-09-19 00:03:00,
2013-09-18 20:18:00,76.9,75.0,29.98,NNE,18,0.0,1.0,92,0.00,,,0.45,weatherlink.com 1.10,2013-09-19 00:18:00,
2013-09-18 20:33:00,76.8,74.0,29.98,NW,318,0.0,1.0,91,0.00,,,0.45,weatherlink.com 1.10,2013-09-19 00:33:00,
2013-09-18 20:48:00,76.7,74.0,29.99,NW,307,0.0,1.0,91,0.00,,,0.45,weatherlink.com 1.10,2013-09-19 00:48:00,
2013-09-18 21:03:00,76.4,74.0,29.99,NNW,328,0.0,0.0,91,0.00,,,0.45,weatherlink.com 1.10,2013-09-19 01:03:00,
2013-09-18 21:18:00,76.2,74.0,30.00,NNW,328,0.0,0.0,92,0.00,,,0.45,weatherlink.com 1.10,2013-09-19 01:18:00,
2013-09-18 21:33:00,76.3,74.0,30.00,WNW,294,0.0,0.0,91,0.00,,,0.45,weatherlink.com 1.10,2013-09-19 01:33:00,
2013-09-18 21:48:00,76.5,74.0,30.01,South,186,0.0,1.0,91,0.00,,,0.45,weatherlink.com 1.10,2013-09-19 01:48:00,
2013-09-18 22:03:00,76.3,74.0,30.01,SSW,210,0.0,0.0,91,0.00,,,0.45,weatherlink.com 1.10,2013-09-19 02:03:00,
2013-09-18 22:18:00,76.4,73.0,30.00,SW,221,0.0,0.0,90,0.00,,,0.45,weatherlink.com 1.10,2013-09-19 02:18:00,
2013-09-18 22:33:00,76.6,74.0,30.00,SW,224,0.0,1.0,90,0.00,,,0.45,weatherlink.com 1.10,2013-09-19 02:33:00,
2013-09-18 22:48:00,76.7,73.0,30.00,NW,321,0.0,1.0,89,0.00,,,0.45,weatherlink.com 1.10,2013-09-19 02:48:00,
2013-09-18 23:03:00,76.2,74.0,30.00,NW,320,0.0,0.0,91,0.00,,,0.45,weatherlink.com 1.10,2013-09-19 03:03:00,
2013-09-18 23:18:00,76.2,74.0,30.01,WSW,240,0.0,0.0,91,0.00,,,0.45,weatherlink.com 1.10,2013-09-19 03:18:00,
2013-09-18 23:33:00,76.0,73.0,30.01,SW,217,0.0,0.0,91,0.00,,,0.45,weatherlink.com 1.10,2013-09-19 03:33:00,
2013-09-18 23:48:00,75.7,73.0,30.00,SW,217,0.0,0.0,92,0.00,,,0.45,weatherlink.com 1.10,2013-09-19 03:48:00,